Zurück zum Katalog

NOAA 16 DEB

AktivSSO
NORAD 41665·DEBRIS·🇺🇸 United States

Gestartet Sep 21, 2000 von Vandenberg Space Force Base

Loading…

Nächste Überflüge (nächste 24 Stunden)

TLE

AlterndSource: Space-Track

Epoche: Sep 10, 2026, 04:44 UTC

1 41665U 00055PE  26253.19739955  .00000517  00000-0  31653-3 0  9992
2 41665  98.6634 238.7402 0039493 317.9509  41.8633 14.09731296533163

Verfolge NOAA 16 DEB in Echtzeit mit AllMySat

Download on the App Store